Regional Weather Roundup
Issued by NWS Wilmington, NC

Current Version | Previous Version | Graphics & Text | Print | Product List | Glossary Off
Versions: 1 2 3 4 5 6 7 8 9 10 11 12 13 14 15 16 17 18 19 20 21 22 23 24 25 26 27

000
ASUS42 KILM 220213
RWRILM
RWRILM
REGIONAL HOURLY WEATHER ROUNDUP
NATIONAL WEATHER SERVICE WILMINGTON NC
1000 PM EDT MON MAY 21 2018

NOTE: "FAIR" INDICATES FEW OR NO CLOUDS BELOW 12,000 FEET WITH NO
SIGNIFICANT WEATHER AND/OR OBSTRUCTIONS TO VISIBILITY.

...............WFO WILMINGTON COUNTY WARNING AREA...............

......COASTAL NC AND SC COUNTIES......

CITY           SKY/WX    TMP DP  RH WIND       PRES   REMARKS
WILMINGTON     FAIR      75  70  84 S7        30.15R
N MYRTLE BEACH FAIR      75  72  90 S9        30.14R
MYRTLE BEACH   FAIR      75  71  87 S8        30.16R

......INLAND NC AND SC COUNTIES.......

CITY           SKY/WX    TMP DP  RH WIND       PRES   REMARKS
LUMBERTON      FAIR      77  68  73 S7        30.12R
ELIZABETHTOWN  FAIR      75  69  81 S7        30.15R
WHITEVILLE     FAIR      75  70  85 S5        30.14S
FLORENCE       FAIR      76  68  76 S6        30.14R
DARLINGTON       N/A     77  70  79 S6        30.14R
KINGSTREE      FAIR      73  72  94 SE5       30.14R
HARTSVILLE     FAIR      73  68  83 S5        30.13R
BENNETTSVILLE  FAIR      79  70  73 SE3       30.12R
CONWAY         FAIR      72  72 100 CALM      30.15R
GEORGETOWN     FAIR      64  64 100 S3        30.16R
MARION         FAIR      73  70  88 S5        30.14R

....................REST OF NORTH CAROLINA......................

.........EASTERN NC.........

CITY           SKY/WX    TMP DP  RH WIND       PRES   REMARKS
CAPE HATTERAS  FAIR      74  72  93 SW8       30.14R
JACKSONVILLE   FAIR      70  69  97 CALM      30.15R
MOREHEAD CITY  FAIR      74  72  93 SW14      30.15R
KENANSVILLE    LGT RAIN  70  68  94 S5        30.16R FOG
NEW BERN       FAIR      71  70  96 SW7       30.14R
ELIZABETH CITY CLOUDY    69  68  96 NE9       30.15R

.........CENTRAL NC.........

CITY           SKY/WX    TMP DP  RH WIND       PRES   REMARKS
RALEIGH DURHAM CLOUDY    69  68  96 CALM      30.14S
ROCKY MOUNT    FAIR      69  68  96 N5        30.13R FOG
ROANOKE RAPIDS NOT AVBL
FAYETTEVILLE   FAIR      78  69  73 S7        30.12R
HOFFMAN        NOT AVBL

.........WESTERN NC.........

CITY           SKY/WX    TMP DP  RH WIND       PRES   REMARKS
CHARLOTTE      MOCLDY    75  67  76 SE5       30.14R
GREENSBORO     MOCLDY    69  69 100 E6        30.14R
HICKORY        NOT AVBL
BOONE          NOT AVBL
ASHEVILLE      NOT AVBL

.....................REST OF SOUTH CAROLINA.....................

.........EASTERN SC.........

CITY           SKY/WX    TMP DP  RH WIND       PRES   REMARKS
CHARLESTON     MOCLDY    74  71  91 S5        30.14R
BEAUFORT MCAS  FAIR      76  72  87 SE3       30.14R
HILTON HEAD    FAIR      75  72  88 CALM      30.15R

.........CENTRAL SC.........

CITY           SKY/WX    TMP DP  RH WIND       PRES   REMARKS
COLUMBIA       MOCLDY    79  70  74 S3        30.12R
ORANGEBURG     FAIR      76  68  76 S5        30.14R
SUMTER SHAW    NOT AVBL

.........WESTERN SC.........

CITY           SKY/WX    TMP DP  RH WIND       PRES   REMARKS
GREENVILLE     NOT AVBL
ROCK HILL      MOCLDY    72  69  90 CALM      30.14R
ANDERSON       MOCLDY    73  68  84 CALM      30.13R
CLEMSON        NOT AVBL
GREENWOOD      FAIR      74  69  85 S6        30.15R


...................COASTAL AND OFFSHORE REPORTS..................

................LOCAL PIERS AND NC RESERVE................


STATION/POSITION TIME  SKY/WX   TEMP    WIND        PRES    VSBY
                                AIR SEA DIR/SP/G
                 (UTC)          (F)     (DEG/KT/KT) (MB)    (MI)
JOHNY MRCER PIER 0148            73 72  210/  7/  8 1021.3R
NC RESRV MASNBRO NOT AVBL
OCEAN CREST PIER NOT AVBL
SPRINGMAID  PIER 0148                               1024.1R


................COASTAL AND OFFSHORE BUOYS................


STATION/POSITION TIME  SKY/WX   TEMP    WIND        PRES    VSBY
                                AIR SEA DIR/SP/G
                 (UTC)          (F)     (DEG/KT/KT) (MB)    (MI)
DIMNDSHOAL 41025 0150            75 74  220/ 10/ 12 1020.7R
WVE H/P(F/S)=  4/ 9 SWL H/P/D(F/S/D)=  3/150/ 9

CAPE LOOKOUT     0100                   210/  7/  9 1020.8S
ONSLOW BAY 41036 NOT AVBL
ONSLOW BAY 41064 0108            76     200/  8/ 12 1020.9R
ONSLOW BAY 41159 0200               75                N/A
WVE H/P(F/S)=  5/ 9 SWL H/P/D(F/S/D)=  2/130/11

MASNBO INL 41110 0200               72                N/A
WVE H/P(F/S)=  3/ 9

WILM HARBR 41108 NOT AVBL
27SE WRITB 41037 0108            74 74  200/  8/ 14 1021.0R
FRYING PAN 41013 0150            76 76  190/  6/  8 1021.3R
WVE H/P(F/S)=  4/ 8 SWL H/P/D(F/S/D)=  3/120/ 8

SUNST NRSH 41024 0108            75 75  220/ 10/ 14 1020.4R
CAPRS NRSH 41029 0108            77 77  200/  8/ 10 1021.4R
EDISTO     41004 0150               76  180/  6/  8 1021.0R
WVE H/P(F/S)=  5/ 9 SWL H/P/D(F/S/D)=  5/120/ 9



..........OFFSHORE BUOYS BEYOND 100 NM OFFSHORE...........
.....IN A TRIANGLE---HAT TO BERMUDA TO BAHAMAS TO HAT.....


STATION/POSITION TIME  SKY/WX   TEMP    WIND        PRES    VSBY
                                AIR SEA DIR/SP/G
                 (UTC)          (F)     (DEG/KT/KT) (MB)    (MI)
150E HAT   41001 NOT AVBL
W BERMUDA  41048 0150               76  200/  4/  6 1023.8R
WVE H/P(F/S)=  4/ 8 SWL H/P/D(F/S/D)=  3/140/ 8

ATLANTIC S 41049 0150               77   90/ 12/ 16 1024.3R
E BAHAMAS  41046 0150            78 79   90/ 16/ 17 1020.7R
WVE H/P(F/S)=  6/ 8 SWL H/P/D(F/S/D)=  5/110/ 8

NE BAHAMAS 41047 0150                   100/ 14/ 17 1023.0R
WVE H/P(F/S)=  5/ 8 SWL H/P/D(F/S/D)=  3/140/ 8

120E CANVRL41010 0150            77 79  110/ 16/ 19 1020.4R
WVE H/P(F/S)=  6/ 9 SWL H/P/D(F/S/D)=  3/120/ 9


END




USA.gov is the U.S. government's official web portal to all federal, state and local government web resources and services.